User: anonymous   Login
Location: Unspecified
(0.0000°N, 0.0000°E)
Time: 13:38:31
(UTC+00:00)
Language:

SES 6 - Orbit

View from above orbital plane
View from above orbital plane
View from above satellite
View from above satellite

Ground track
Ground track

The orbit data is extracted from the following two-line orbital elements,

1 39172U 13026A   17146.10915633 -.00000270 +00000-0 +00000-0 0  9991
2 39172 000.0512 070.6675 0001919 346.7118 185.2878 01.00270508014550
Epoch (UTC): 26 May 2017 02:37:11
Eccentricity: 0.0001919
inclination: 0.0512°
perigee height: 35778 km
apogee height: 35794 km
right ascension of ascending node: 70.6675°
argument of perigee: 346.7118°
revolutions per day: 1.00270508
mean anomaly at epoch: 185.2878°
orbit number at epoch: 1455

The dashed part of the orbit path shows where the satellite is in the earth's shadow,  

DLR